Погода в Жердевке

Россия / Белгородская область     50°03′47″N   38°01′18″E
темп.,
°C
ветер,
м/с
пор.,
м/с
влажн.,
%
обл.,
%
осадки,
мм/ч
давл.,
гПа
погр.,
м
12 мая, ср
ср1200:00+8в91587100 0.6 10191088
03:00+8в81386100 0.8 1019959
06:00+7в71289100 0.2 1019924
09:00+9в91485100 0.4 10191251
12:00+9юв51186100 0.9 1018823
15:00+11юв597964 2.1 1017739
18:00+12ююв587329 0.7 1016874
21:00+10юв5129399 2.0 1016458
13 мая, чт
чт1300:00+9юв5119289 0.9 1016378
03:00+8вюв369697 1.1 1016134
06:00+10вюв259781 1.7 1016186
09:00+14ююв368096 1.8 1015520
12:00+18ююз4769100 0.3 10151350
15:00+18зюз126850 0.6 1015609
18:00+20вюв026425 0.4 1014515
21:00+16св3380100 0.5 101552
14 мая, пт
пт1400:00+14вюв338797 0.0 101437
03:00+13вюв369089 0.0 101479
06:00+14вюв3109179 0.0 1014213
09:00+20юв6107151 0.0 1013597
12:00+24юв6857100 0.0 10121004
15:00+24вюв6961100 0.0 1011675
18:00+23юв496976 0.1 1011292
21:00+20вюв4977100 0.1 1011145
15 мая, сб
сб1500:00+17ююв4990100 0.0 1011149
03:00+17ю3491100 0.1 101175
06:00+16юз1194100 1.6 101136
09:00+21ююз346795 1.6 1012597
12:00+24юз455585 0.0 10121332
15:00+24зюз56480 0.0 10121833
18:00+23юз346039 0.0 1012292
21:00+16сз22775 0.1 101319
16 мая, вс
вс1600:00+14ссз228470 0.0 101411
03:00+13ссв228927 0.0 101415
06:00+14св2487100 0.0 1015106
09:00+20св456811 0.0 1014479
12:00+23св555715 0.0 10141056
15:00+25всв675618 0.0 10121535
18:00+24св596889 0.0 1011553
21:00+19всв4678100 0.0 101189